Weather Roundup
Issued by NWS Chicago, IL

Home | Current Version | Previous Version | Graphics & Text | Print | Product List | Glossary On
Versions: 1 2 3 4 5 6 7 8 9 10 11 12 13 14 15 16 17 18 19 20 21 22 23 24 25 26 27 28 29 30 31 32 33 34 35 36 37 38 39 40 41 42 43 44 45 46 47 48 49 50
499
NZUS59 KLOT 110008
HRRLOT

CHICAGO AREA WEATHER ROUNDUP
NATIONAL WEATHER SERVICE CHICAGO/ROMEOVILLE IL
600 PM CST WED FEB 10 2016

NOTE: "FAIR" INDICATES FEW OR NO CLOUDS BELOW 12,000 FEET WITH NO
SIGNIFICANT WEATHER AND/OR OBSTRUCTIONS TO VISIBILITY.

* THESE STATIONS ARE NOT UNDER NWS QUALITY CONTROL. THEY ALSO MAY NOT
  REPORT WEATHER SUCH AS PRECIPITATION OR FOG.

ILZ005-006-012>014-019>023-110100-
NORTHEAST ILLINOIS

CITY           SKY/WX    TMP DP  RH WIND       PRES   REMARKS
OHARE          MOCLDY    14   1  56 N12       30.08R WCI   0
6HR MIN TEMP:  13; 6HR MAX TEMP:  18;

MIDWAY         PTCLDY    17   1  49 NW12      30.09R WCI   4
6HR MIN TEMP:  16; 6HR MAX TEMP:  19;

AURORA         PTCLDY    16   4  59 NW8       30.09R WCI   5
6HR MIN TEMP:  15; 6HR MAX TEMP:  18;

LANSING*       MOCLDY    17   2  53 NW7       30.09R WCI   7
JOLIET*        CLEAR     17   5  57 NW6       30.11R WCI   9
WAUKEGAN       PTCLDY    11   0  61 NW6       30.09R WCI   1
6HR MIN TEMP:  11; 6HR MAX TEMP:  15;

DUPAGE AIRPORT CLEAR     13   1  59 N8        30.08R WCI   2
6HR MIN TEMP:  13; 6HR MAX TEMP:  17;

WHEELING       CLOUDY    14   1  56 N7        30.10R WCI   4
6HR MIN TEMP:  14; 6HR MAX TEMP:  17;

KANKAKEE*      MOCLDY    17   7  63 N6        30.10R WCI   9
MORRIS*        CLEAR     16   7  66 CALM      30.08R
LEWIS AIRPORT* CLOUDY    16   4  60 NW9       30.09R WCI   4
$$

WIZ051-052-058>065-066-070>072-110100-
SOUTHEAST WISCONSIN

CITY           SKY/WX    TMP DP  RH WIND       PRES   REMARKS
MILWAUKEE      MOCLDY    12  -2  53 NW8       30.10R WCI   0
6HR MIN TEMP:  12; 6HR MAX TEMP:  16;

KENOSHA*       PTCLDY    12   0  58 NW5       30.09R WCI   4
RACINE*        PTCLDY    12  -3  51 NW8       30.11R WCI   0
BURLINGTON     MOCLDY    10  -1  61 NW7       30.09R WCI  -2
WAUKESHA       PTCLDY     9  -2  61 NW6       30.09R WCI  -1
WEST BEND      CLEAR     10  -4  52 CALM      30.08R
$$

INZ001>003-010>013-019-020-110100-
NORTHWEST INDIANA

CITY           SKY/WX    TMP DP  RH WIND       PRES   REMARKS
GARY*          MOCLDY    18   1  49 W12       30.09R WCI   5
MICHIGAN CITY* NOT AVBL
RENSSELAER*    NOT AVBL
VALPARAISO     LGT SNOW  16   7  67 NW8       30.07R WCI   5
$$

LMZ740>746-110100-
SOUTHERN LAKE MICHIGAN

STATION/POSITION TIME  SKY/WX   TEMP WIND        PRES    VSBY
                                AIR  DIR/SP/G
                 (UTC)          (F)  (DEG/KT/KT) (MB)    (MI)
HARRISON CRIB    2300            17  330/ 13/ 15   N/A
BURNHAM HARBOR   0000            17  330/  9/ 14   N/A
CALUMET HARBOR   2300            17              1017.4
BURNS HARBOR     2300            18  320/ 11/ 19 1018.3R
MICHIGAN CITY    2300            16  300/ 11/ 16   N/A
$$

ABBREVIATIONS USED IN REMARKS
   TC - TEMPERATURE IN CELSIUS
  WCI - WIND CHILL INDEX
   HX - HEAT INDEX
  VSB - VISIBILITY
$$




USA.gov is the U.S. government's official web portal to all federal, state and local government web resources and services.